1296867025042,0.000145139
1296867085042,0.000145530
1296867145042,0.000145363
1296867205042,0.000144709
1296867265042,0.000144859
1296870625052,0.000147227
1296870685052,0.000146815
1296870745052,0.000145773
1296870805052,0.000145669
1296870865052,0.000145988
1296874225063,0.000144965
1296874285063,0.000145486
1296874345063,0.000146039
1296874405063,0.000145224
1296874465063,0.000146578
1296877825074,0.000145667
1296877885074,0.000145018
1296877945074,0.000145650
1296878005074,0.000146157
1296878065074,0.000145276
1296881425085,0.000143934
1296881485085,0.000145880
1296881545085,0.000146104
1296881605085,0.000145088
1296881665085,0.000145759
1296885025096,0.000144711
1296885085096,0.000144850
1296885145096,0.000145687
1296885205096,0.000143835
1296885265096,0.000144174
1296888625107,0.000145189
1296888685107,0.000144886
1296888745107,0.000144318
1296888805107,0.000143256
1296888865107,0.000144186
1296892225118,0.000143897
1296892285118,0.000144389
1296892345118,0.000143873
1296892405118,0.000143920
1296892465118,0.000142827
1296895825130,0.000143005
1296895885130,0.000143036
1296895945130,0.000142837
1296896005130,0.000143197
1296896065130,0.000143257
1296899425141,0.000144199
1296899485141,0.000142377
1296899545141,0.000143173
1296899605141,0.000141642
1296899665141,0.000143028
1296903025153,0.000141823
1296903085153,0.000142547
1296903145153,0.000143175
1296903205153,0.000142607
1296903265153,0.000141946
1296906625164,0.000142133
1296906685164,0.000141572
1296906745164,0.000142602
1296906805164,0.000141910
1296906865164,0.000143211
1296910225176,0.000142332
1296910285176,0.000141596
1296910345176,0.000142355
1296910405176,0.000140234
1296910465176,0.000141980
1296913825188,0.000142818
1296913885188,0.000141749
1296913945188,0.000142445
1296914005188,0.000141998
1296914065188,0.000142456
1296914125188,0.000143327
1296914185188,0.000143182
1296914245188,0.000143272
1296914305188,0.000142768
1296914365188,0.000143472
1296914425199,0.000142072
1296914485199,0.000143037
1296914545199,0.000142529
1296914605199,0.000143647
1296914665199,0.000142443
1296914725199,0.000142477
1296914785199,0.000142612
1296914845199,0.000143329
1296914905199,0.000141417
1296914965199,0.000142635
1296915025199,0.000141397
1296915085199,0.000141404
1296915145199,0.000141879
1296915205199,0.000142905
1296915265199,0.000141938
1296915325199,0.000142423
1296915385199,0.000143540
1296915445199,0.000142643
1296915505199,0.000142601
1296915565199,0.000142897
1296915625199,0.000142784
1296915685199,0.000141618
1296915745199,0.000141676
1296915805199,0.000142417
1296915865199,0.000141740
1296915925199,0.000142048
1296915985199,0.000141762
1296916045199,0.000141429
1296916105199,0.000142737
1296916165199,0.000143329
1296916225199,0.000141456
1296916285199,0.000141930
1296916345199,0.000141464
1296916405199,0.000142811
1296916465199,0.000142038
1296916525199,0.000141413
1296916585199,0.000142429
1296916645199,0.000141888
1296916705199,0.000141819
1296916765199,0.000141660
1296916825199,0.000142873
1296916885199,0.000141709
1296916945199,0.000141894
1296917005199,0.000141736
1296917065199,0.000142457
1296917125199,0.000142921
1296917185199,0.000142217
1296917245199,0.000142824
1296917305199,0.000141846
1296917365199,0.000143022
1296917425199,0.000142638
1296917485199,0.000141180
1296917545199,0.000141716
1296917605199,0.000140684
1296917665199,0.000141322
1296917725199,0.000142421
1296917785199,0.000142283
1296917845199,0.000142583
1296917905199,0.000142164
1296917965199,0.000142578
1296918025211,0.000142218
1296918085211,0.000141668
1296918145211,0.000141977
1296918205211,0.000142013
1296918265211,0.000143583
1296918325211,0.000140917
1296918385211,0.000143365
1296918445211,0.000142127
1296918505211,0.000142625
1296918565211,0.000142019
1296918625211,0.000143170
1296918685211,0.000143468
1296918745211,0.000143622
1296918805211,0.000141653
1296918865211,0.000142470
1296918925211,0.000143033
1296918985211,0.000143312
1296919045211,0.000142144
1296919105211,0.000142283
1296919165211,0.000143394
1296919225211,0.000144111
1296919285211,0.000143123
1296919345211,0.000142773
1296919405211,0.000142377
1296919465211,0.000141273
1296919525211,0.000143120
1296919585211,0.000141919
1296919645211,0.000142167
1296919705211,0.000142701
1296919765211,0.000143083
1296919825211,0.000142584
1296919885211,0.000142266
1296919945211,0.000142175
1296920005211,0.000141821
1296920065211,0.000143113
1296920125211,0.000142628
1296920185211,0.000142677
1296920245211,0.000142170
1296920305211,0.000143110
1296920365211,0.000143761
1296920425211,0.000143759
1296920485211,0.000143096
1296920545211,0.000143411
1296920605211,0.000141202
1296920665211,0.000143672
1296920725211,0.000142549
1296920785211,0.000142852
1296920845211,0.000142802
1296920905211,0.000142333
1296920965211,0.000143045
1296921025211,0.000142849
1296921085211,0.000143706
1296921145211,0.000143223
1296921205211,0.000143798
1296921265211,0.000142988
1296921325211,0.000143564
1296921385211,0.000143509
1296921445211,0.000143503
1296921505211,0.000144375
1296921565211,0.000143185
1296921625222,0.000142662
1296921685222,0.000143661
1296921745222,0.000142981
1296921805222,0.000142565
1296921865222,0.000142773
1296921925222,0.000143390
1296921985222,0.000142727
1296922045222,0.000143572
1296922105222,0.000142057
1296922165222,0.000143974
1296922225222,0.000142259
1296922285222,0.000144139
1296922345222,0.000142964
1296922405222,0.000142427
1296922465222,0.000143240
1296922525222,0.000142320
1296922585222,0.000143395
1296922645222,0.000142758
1296922705222,0.000143088
1296922765222,0.000142225
1296922825222,0.000143012
1296922885222,0.000142620
1296922945222,0.000142572
1296923005222,0.000142416
1296923065222,0.000142681
1296923125222,0.000142740
1296923185222,0.000143121
1296923245222,0.000144157
1296923305222,0.000142991
1296923365222,0.000143413
1296923425222,0.000142086
1296923485222,0.000143054
1296923545222,0.000143431
1296923605222,0.000143290
1296923665222,0.000142546
1296923725222,0.000142829
1296923785222,0.000142264
1296923845222,0.000143054
1296923905222,0.000143310
1296923965222,0.000142606
1296924025222,0.000143796
1296924085222,0.000143406
1296924145222,0.000142021
1296924205222,0.000141507
1296924265222,0.000142606
1296924325222,0.000143702
1296924385222,0.000143081
1296924445222,0.000142935
1296924505222,0.000143088
1296924565222,0.000143026
1296924625222,0.000143467
1296924685222,0.000143718
1296924745222,0.000143642
1296924805222,0.000143005
1296924865222,0.000141585
1296928225233,0.000142300
1296928285233,0.000142938
1296928345233,0.000143370
1296928405233,0.000142622
1296928465233,0.000144498
1296931825245,0.000143862
1296931885245,0.000143626
1296931945245,0.000143954
1296932005245,0.000144490
1296932065245,0.000142236
1296935425256,0.000143374
1296935485256,0.000144303
1296935545256,0.000143609
1296935605256,0.000143805
1296935665256,0.000143596
1296939025267,0.000143503
1296939085267,0.000142589
1296939145267,0.000143073
1296939205266,0.000143501
1296939265266,0.000144973
1296942625277,0.000143937
1296942685277,0.000143775
1296942745277,0.000142746
1296942805277,0.000143490
1296942865277,0.000144178
1296946225288,0.000145315
1296946285288,0.000144458
1296946345288,0.000144850
1296946405288,0.000143437
1296946465288,0.000143275
1296949825299,0.000144387
1296949885299,0.000144131
1296949945299,0.000144205
1296950005299,0.000142970
1296950065299,0.000143747
